Date String (YYYY-MM-DD hh:mm:ss) UTC,Instrument flags,absolute air pressure of the measurement (hPa),sample flow rate (lpm),inlet stack bypass flow (lpm),air temperature of the measurement (°C),ambient temperature measured by the external sensor (°C),aerosol sample conditioner tube jacket temperature (°C),OPC LED temperature (°C),internal box temperature (°C),relative humidity of the measurement (%),span deviation,mass concentration of particles derived from Lorenz-Mie calculation of OPC scattering (μg/m³),mass concentration of particles derived from Lorenz-Mie calculation of OPC scattering (μg/m³),mass concentration of particles derived from Lorenz-Mie calculation of OPC scattering (μg/m³)
DateTimeUTC,F1_M11,P_M11,Q1_M11,Q2_M11,T1_M11,T2_M11,T3_M11,T4_M11,T5_M11,U1_M11,ZSPAN_M11,X0_M11,X2_M11,X1_M11
2024-05-02 11:00:00,SystemResetWarning,0825.9,4.99,000.00,022.7,021.8,000.0,031.3,024.4,009.5,0000.0,0009.12,0003.10,0001.86
2024-05-02 11:01:00,SystemResetWarning,0825.9,5.00,000.00,022.7,021.8,000.0,031.3,024.4,009.4,0000.0,0008.68,0003.10,0001.87
2024-05-02 11:02:00,SystemResetWarning,0825.9,4.99,000.00,022.6,021.8,000.0,031.3,024.4,009.5,0000.0,0008.59,0003.06,0001.86
2024-05-02 11:03:00,SystemResetWarning,0825.9,5.00,000.00,022.6,021.8,000.0,031.3,024.3,009.2,0000.0,0008.71,0003.12,0001.86
2024-05-02 11:04:00,SystemResetWarning,0826.0,5.00,000.00,022.6,021.8,000.0,031.2,024.3,009.3,0000.0,0008.79,0003.16,0001.86
2024-05-02 11:05:00,SystemResetWarning,0826.0,5.00,000.00,022.6,021.7,000.0,031.2,024.3,009.5,0000.0,0008.97,0003.15,0001.85
2024-05-02 11:06:00,SystemResetWarning,0826.0,5.00,000.00,022.6,021.7,000.0,031.2,024.3,009.5,0000.0,0007.85,0003.13,0001.82
2024-05-02 11:07:00,SystemResetWarning,0826.0,5.00,000.00,022.6,021.7,000.0,031.2,024.3,009.4,0000.0,0007.32,0003.14,0001.82
2024-05-02 11:08:00,SystemResetWarning,0826.1,5.00,000.00,022.6,021.7,000.0,031.2,024.3,009.5,0000.0,0007.36,0003.11,0001.83
2024-05-02 11:09:00,SystemResetWarning,0826.1,5.01,000.00,022.5,021.7,000.0,031.1,024.2,009.4,0000.0,0007.47,0003.10,0001.82
2024-05-02 11:10:00,SystemResetWarning,0826.2,5.00,000.00,022.5,021.6,000.0,031.1,024.2,009.3,0000.0,0007.25,0002.99,0001.79
2024-05-02 11:11:00,SystemResetWarning,0826.2,5.00,000.00,022.5,021.6,000.0,031.1,024.2,009.3,0000.0,0006.84,0002.95,0001.78
2024-05-02 11:12:00,SystemResetWarning,0826.2,5.00,000.00,022.5,021.6,000.0,031.1,024.2,009.4,0000.0,0007.03,0002.93,0001.78
2024-05-02 11:13:00,SystemResetWarning,0826.2,5.00,000.00,022.5,021.6,000.0,031.1,024.2,009.4,0000.0,0007.39,0002.97,0001.79
2024-05-02 11:14:00,SystemResetWarning,0826.2,4.99,000.00,022.5,021.6,000.0,031.1,024.2,009.4,0000.0,0007.56,0002.97,0001.81
2024-05-02 11:15:00,SystemResetWarning,0826.2,5.00,000.00,022.5,021.6,000.0,031.1,024.2,009.5,0000.0,0007.70,0002.91,0001.80
2024-05-02 11:16:00,SystemResetWarning,0826.2,5.01,000.00,022.5,021.6,000.0,031.1,024.2,009.5,0000.0,0007.51,0002.97,0001.81
2024-05-02 11:17:00,SystemResetWarning,0826.2,5.00,000.00,022.4,021.6,000.0,031.0,024.2,009.5,0000.0,0007.33,0002.92,0001.82
2024-05-02 11:18:00,SystemResetWarning,0826.2,5.00,000.00,022.4,021.6,000.0,031.0,024.1,009.5,0000.0,0007.46,0002.99,0001.83
2024-05-02 11:19:00,SystemResetWarning,0826.2,5.00,000.00,022.4,021.6,000.0,031.0,024.1,009.6,0000.0,0007.71,0003.11,0001.82
2024-05-02 11:20:00,SystemResetWarning,0826.2,4.99,000.00,022.4,021.6,000.0,031.0,024.2,009.5,0000.0,0008.02,0003.13,0001.83
2024-05-02 11:21:00,SystemResetWarning,0826.2,5.00,000.00,022.4,021.6,000.0,031.0,024.1,009.6,0000.0,0008.27,0003.16,0001.84
2024-05-02 11:22:00,SystemResetWarning,0826.3,5.00,000.00,022.4,021.6,000.0,031.0,024.1,009.5,0000.0,0008.26,0003.17,0001.84
2024-05-02 11:23:00,SystemResetWarning,0826.3,5.00,000.00,022.4,021.5,000.0,031.0,024.1,009.5,0000.0,0008.20,0003.21,0001.86
2024-05-02 11:24:00,SystemResetWarning,0826.4,5.00,000.00,022.4,021.5,000.0,031.0,024.1,009.5,0000.0,0008.00,0003.20,0001.85
2024-05-02 11:25:00,SystemResetWarning,0826.4,5.00,000.00,022.4,021.5,000.0,031.0,024.1,009.5,0000.0,0007.73,0003.17,0001.84
2024-05-02 11:26:00,SystemResetWarning,0826.4,5.00,000.00,022.4,021.5,000.0,030.9,024.1,009.7,0000.0,0007.46,0003.13,0001.84
2024-05-02 11:27:00,SystemResetWarning,0826.4,5.00,000.00,022.4,021.5,000.0,030.9,024.1,009.6,0000.0,0007.40,0003.09,0001.85
2024-05-02 11:28:00,SystemResetWarning,0826.5,5.00,000.00,022.4,021.5,000.0,030.9,024.2,009.8,0000.0,0007.54,0003.09,0001.84
2024-05-02 11:29:00,SystemResetWarning,0826.4,5.01,000.00,022.3,021.5,000.0,030.9,024.1,009.7,0000.0,0007.46,0003.01,0001.83
2024-05-02 11:30:00,SystemResetWarning,0826.5,5.00,000.00,022.4,021.5,000.0,030.9,024.1,009.6,0000.0,0007.05,0002.94,0001.83
2024-05-02 11:31:00,SystemResetWarning,0826.6,4.99,000.00,022.4,021.5,000.0,030.9,024.2,009.8,0000.0,0006.16,0002.93,0001.83
2024-05-02 11:32:00,SystemResetWarning,0826.6,5.00,000.00,022.3,021.6,000.0,030.9,024.1,010.0,0000.0,0006.09,0002.96,0001.84
2024-05-02 11:33:00,SystemResetWarning,0826.6,4.99,000.00,022.3,021.5,000.0,030.9,024.1,010.4,0000.0,0006.59,0002.98,0001.84
2024-05-02 11:34:00,SystemResetWarning,0826.6,4.99,000.00,022.3,021.5,000.0,030.9,024.1,011.8,0000.0,0007.00,0002.97,0001.83
2024-05-02 11:35:00,SystemResetWarning,0826.6,5.00,000.00,022.3,021.5,000.0,030.9,024.1,013.4,0000.0,0007.04,0003.02,0001.85
2024-05-02 11:36:00,SystemResetWarning,0826.6,5.01,000.00,022.3,021.5,000.0,030.9,024.1,014.2,0000.0,0007.29,0003.10,0001.87
2024-05-02 11:37:00,SystemResetWarning,0826.6,5.01,000.00,022.3,021.5,000.0,030.9,024.1,014.5,0000.0,0007.46,0003.17,0001.91
2024-05-02 11:38:00,SystemResetWarning,0826.6,5.01,000.00,022.3,021.5,000.0,030.9,024.1,014.8,0000.0,0007.71,0003.27,0001.94
2024-05-02 11:39:00,SystemResetWarning,0826.6,5.00,000.00,022.3,021.6,000.0,030.9,024.1,014.5,0000.0,0008.04,0003.38,0001.99
2024-05-02 11:40:00,SystemResetWarning,0826.6,5.00,000.00,022.3,021.6,000.0,030.9,024.1,014.2,0000.0,0008.17,0003.44,0002.02
2024-05-02 11:41:00,SystemResetWarning,0826.6,5.00,000.00,022.3,021.5,000.0,030.9,024.1,014.3,0000.0,0008.20,0003.45,0002.06
2024-05-02 11:42:00,SystemResetWarning,0826.6,5.00,000.00,022.3,021.5,000.0,030.9,024.0,014.5,0000.0,0008.36,0003.49,0002.09
2024-05-02 11:43:00,SystemResetWarning,0826.6,4.99,000.00,022.3,021.5,000.0,030.8,024.1,014.3,0000.0,0008.46,0003.52,0002.11
2024-05-02 11:44:00,SystemResetWarning,0826.5,5.00,000.00,022.3,021.5,000.0,030.8,024.0,014.3,0000.0,0008.51,0003.57,0002.14
2024-05-02 11:45:00,SystemResetWarning,0826.6,5.00,000.00,022.3,021.5,000.0,030.8,024.0,014.0,0000.0,0008.44,0003.62,0002.18
2024-05-02 11:46:00,SystemResetWarning,0826.6,5.00,000.00,022.3,021.5,000.0,030.8,024.0,013.5,0000.0,0008.55,0003.63,0002.17
2024-05-02 11:47:00,SystemResetWarning,0826.6,5.00,000.00,022.3,021.5,000.0,030.8,024.0,013.1,0000.0,0008.52,0003.62,0002.14
2024-05-02 11:48:00,SystemResetWarning,0826.6,5.00,000.00,022.3,021.5,000.0,030.8,024.0,012.7,0000.0,0008.49,0003.57,0002.11
2024-05-02 11:49:00,SystemResetWarning,0826.6,5.00,000.00,022.3,021.5,000.0,030.7,024.0,014.0,0000.0,0008.97,0003.46,0002.06
2024-05-02 11:50:00,SystemResetWarning,0826.5,5.00,000.00,022.3,021.5,000.0,030.7,024.0,014.5,0000.0,0008.87,0003.42,0002.03
2024-05-02 11:51:00,SystemResetWarning,0826.5,5.01,000.00,022.3,021.5,000.0,030.8,024.0,015.0,0000.0,0008.66,0003.42,0002.02
2024-05-02 11:52:00,SystemResetWarning,0826.6,5.00,000.00,022.3,021.5,000.0,030.8,024.0,015.1,0000.0,0008.60,0003.43,0002.02
2024-05-02 11:53:00,SystemResetWarning,0826.6,4.98,000.00,022.3,021.5,000.0,030.8,024.0,015.3,0000.0,0008.63,0003.43,0002.03
2024-05-02 11:54:00,SystemResetWarning,0826.6,5.00,000.00,022.2,021.5,000.0,030.7,024.0,015.5,0000.0,0009.66,0003.44,0002.06
2024-05-02 11:55:00,SystemResetWarning,0826.6,5.01,000.00,022.2,021.5,000.0,030.7,024.0,015.5,0000.0,0009.72,0003.45,0002.10
2024-05-02 11:56:00,SystemResetWarning,0826.6,5.00,000.00,022.2,021.5,000.0,030.7,023.9,015.4,0000.0,0009.81,0003.48,0002.11
2024-05-02 11:57:00,SystemResetWarning,0826.6,5.00,000.00,022.2,021.4,000.0,030.7,023.9,015.5,0000.0,0009.90,0003.51,0002.13
2024-05-02 11:58:00,SystemResetWarning,0826.6,5.00,000.00,022.2,021.4,000.0,030.7,023.9,015.7,0000.0,0009.92,0003.52,0002.15
2024-05-02 11:59:00,SystemResetWarning,0826.7,4.99,000.00,022.2,021.4,000.0,030.7,023.9,015.7,0000.0,0010.34,0003.56,0002.19
